Year,Month,Day,Hour,Minute,Value (Times are PST for temperature in C)
2018,07,14,00,00,16.70
2018,07,14,00,01,16.70
2018,07,14,00,02,16.70
2018,07,14,00,03,16.60
2018,07,14,00,04,16.60
2018,07,14,00,05,16.60
2018,07,14,00,06,16.60
2018,07,14,00,07,16.60
2018,07,14,00,08,16.60
2018,07,14,00,09,16.70
2018,07,14,00,10,16.70
2018,07,14,00,11,16.70
2018,07,14,00,12,16.70
2018,07,14,00,13,16.70
2018,07,14,00,14,16.60
2018,07,14,00,15,16.60
2018,07,14,00,16,16.60
2018,07,14,00,17,16.60
2018,07,14,00,18,16.50
2018,07,14,00,19,16.50
2018,07,14,00,20,16.50
2018,07,14,00,21,16.50
2018,07,14,00,22,16.50
2018,07,14,00,23,16.40
2018,07,14,00,24,16.40
2018,07,14,00,25,16.40
2018,07,14,00,26,16.40
2018,07,14,00,27,16.40
2018,07,14,00,28,16.40
2018,07,14,00,29,16.30
2018,07,14,00,30,16.30
2018,07,14,00,31,16.30
2018,07,14,00,32,16.30
2018,07,14,00,33,16.30
2018,07,14,00,34,16.30
2018,07,14,00,35,16.30
2018,07,14,00,36,16.30
2018,07,14,00,37,16.30
2018,07,14,00,38,16.30
2018,07,14,00,39,16.30
2018,07,14,00,40,16.30
2018,07,14,00,41,16.30
2018,07,14,00,42,16.30
2018,07,14,00,43,16.30
2018,07,14,00,44,16.30
2018,07,14,00,45,16.30
2018,07,14,00,46,16.30
2018,07,14,00,47,16.30
2018,07,14,00,48,16.20
2018,07,14,00,49,16.20
2018,07,14,00,50,16.20
2018,07,14,00,51,16.20
2018,07,14,00,52,16.20
2018,07,14,00,53,16.20
2018,07,14,00,54,16.20
2018,07,14,00,55,16.20
2018,07,14,00,56,16.20
2018,07,14,00,57,16.20
2018,07,14,00,58,16.20
2018,07,14,00,59,16.20
2018,07,14,01,00,16.20
2018,07,14,01,01,16.20
2018,07,14,01,02,16.20
2018,07,14,01,03,16.20
2018,07,14,01,04,16.20
2018,07,14,01,05,16.10
2018,07,14,01,06,16.10
2018,07,14,01,07,16.10
2018,07,14,01,08,16.10
2018,07,14,01,09,16.10
2018,07,14,01,10,16.00
2018,07,14,01,11,16.00
2018,07,14,01,12,16.00
2018,07,14,01,13,16.00
2018,07,14,01,14,16.00
2018,07,14,01,15,16.00
2018,07,14,01,16,16.00
2018,07,14,01,17,16.00
2018,07,14,01,18,16.00
2018,07,14,01,19,16.00
2018,07,14,01,20,16.00
2018,07,14,01,21,15.90
2018,07,14,01,22,15.90
2018,07,14,01,23,15.90
2018,07,14,01,24,15.90
2018,07,14,01,25,15.90
2018,07,14,01,26,15.80
2018,07,14,01,27,15.80
2018,07,14,01,28,15.80
2018,07,14,01,29,15.80
2018,07,14,01,30,15.70
2018,07,14,01,31,15.70
2018,07,14,01,32,15.70
2018,07,14,01,33,15.70
2018,07,14,01,34,15.70
2018,07,14,01,35,15.70
2018,07,14,01,36,15.70
2018,07,14,01,37,15.70
2018,07,14,01,38,15.70
2018,07,14,01,39,15.70
2018,07,14,01,40,15.70
2018,07,14,01,41,15.60
2018,07,14,01,42,15.60
2018,07,14,01,43,15.60
2018,07,14,01,44,15.60
2018,07,14,01,45,15.60
2018,07,14,01,46,15.60
2018,07,14,01,47,15.60
2018,07,14,01,48,15.60
2018,07,14,01,49,15.60
2018,07,14,01,50,15.50
2018,07,14,01,51,15.50
2018,07,14,01,52,15.50
2018,07,14,01,53,15.50
2018,07,14,01,54,15.40
2018,07,14,01,55,15.40
2018,07,14,01,56,15.40
2018,07,14,01,57,15.40
2018,07,14,01,58,15.40
2018,07,14,01,59,15.30
2018,07,14,02,00,15.30
2018,07,14,02,01,15.30
2018,07,14,02,02,15.30
2018,07,14,02,03,15.30
2018,07,14,02,04,15.20
2018,07,14,02,05,15.20
2018,07,14,02,06,15.20
2018,07,14,02,07,15.20
2018,07,14,02,08,15.20
2018,07,14,02,09,15.20
2018,07,14,02,10,15.20
2018,07,14,02,11,15.10
2018,07,14,02,12,15.10
2018,07,14,02,13,15.10
2018,07,14,02,14,15.10
2018,07,14,02,15,15.10
2018,07,14,02,16,15.10
2018,07,14,02,17,15.00
2018,07,14,02,18,15.00
2018,07,14,02,19,15.00
2018,07,14,02,20,14.90
2018,07,14,02,21,14.90
2018,07,14,02,22,14.90
2018,07,14,02,23,14.90
2018,07,14,02,24,14.90
2018,07,14,02,25,14.90
2018,07,14,02,26,14.90
2018,07,14,02,27,14.90
2018,07,14,02,28,14.90
2018,07,14,02,29,14.90
2018,07,14,02,30,14.90
2018,07,14,02,31,14.90
2018,07,14,02,32,14.90
2018,07,14,02,33,14.90
2018,07,14,02,34,14.80
2018,07,14,02,35,14.80
2018,07,14,02,36,14.80
2018,07,14,02,37,14.80
2018,07,14,02,38,14.80
2018,07,14,02,39,14.80
2018,07,14,02,40,14.80
2018,07,14,02,41,14.80
2018,07,14,02,42,14.80
2018,07,14,02,43,14.80
2018,07,14,02,44,14.80
2018,07,14,02,45,14.80
2018,07,14,02,46,14.80
2018,07,14,02,47,14.80
2018,07,14,02,48,14.80
2018,07,14,02,49,14.80
2018,07,14,02,50,14.80
2018,07,14,02,51,14.80
2018,07,14,02,52,14.80
2018,07,14,02,53,14.80
2018,07,14,02,54,14.80
2018,07,14,02,55,14.80
2018,07,14,02,56,14.80
2018,07,14,02,57,14.70
2018,07,14,02,58,14.70
2018,07,14,02,59,14.70
2018,07,14,03,00,14.70
2018,07,14,03,01,14.70
2018,07,14,03,02,14.70
2018,07,14,03,03,14.70
2018,07,14,03,04,14.70
2018,07,14,03,05,14.70
2018,07,14,03,06,14.70
2018,07,14,03,07,14.70
2018,07,14,03,08,14.70
2018,07,14,03,09,14.70
2018,07,14,03,10,14.60
2018,07,14,03,11,14.60
2018,07,14,03,12,14.60
2018,07,14,03,13,14.50
2018,07,14,03,14,14.50
2018,07,14,03,15,14.50
2018,07,14,03,16,14.40
2018,07,14,03,17,14.40
2018,07,14,03,18,14.40
2018,07,14,03,19,14.40
2018,07,14,03,20,14.40
2018,07,14,03,21,14.30
2018,07,14,03,22,14.30
2018,07,14,03,23,14.30
2018,07,14,03,24,14.20
2018,07,14,03,25,14.20
2018,07,14,03,26,14.20
2018,07,14,03,27,14.20
2018,07,14,03,28,14.20
2018,07,14,03,29,14.20
2018,07,14,03,30,14.20
2018,07,14,03,31,14.20
2018,07,14,03,32,14.20
2018,07,14,03,33,14.20
2018,07,14,03,34,14.20
2018,07,14,03,35,14.20
2018,07,14,03,36,14.20
2018,07,14,03,37,14.20
2018,07,14,03,38,14.20
2018,07,14,03,39,14.20
2018,07,14,03,40,14.20
2018,07,14,03,41,14.10
2018,07,14,03,42,14.10
2018,07,14,03,43,14.10
2018,07,14,03,44,14.10
2018,07,14,03,45,14.10
2018,07,14,03,46,14.10
2018,07,14,03,47,14.10
2018,07,14,03,48,14.10
2018,07,14,03,49,14.10
2018,07,14,03,50,14.10
2018,07,14,03,51,14.10
2018,07,14,03,52,14.10
2018,07,14,03,53,14.00
2018,07,14,03,54,14.00
2018,07,14,03,55,14.00
2018,07,14,03,56,14.00
2018,07,14,03,57,14.00
2018,07,14,03,58,14.00
2018,07,14,03,59,14.00
2018,07,14,04,00,14.00
2018,07,14,04,01,14.00
2018,07,14,04,02,14.00
2018,07,14,04,03,14.10
2018,07,14,04,04,14.10
2018,07,14,04,05,14.00
2018,07,14,04,06,14.00
2018,07,14,04,07,14.00
2018,07,14,04,08,13.90
2018,07,14,04,09,13.90
2018,07,14,04,10,13.90
2018,07,14,04,11,13.90
2018,07,14,04,12,13.80
2018,07,14,04,13,13.80
2018,07,14,04,14,13.80
2018,07,14,04,15,13.80
2018,07,14,04,16,13.80
2018,07,14,04,17,13.70
2018,07,14,04,18,13.70
2018,07,14,04,19,13.70
2018,07,14,04,20,13.70
2018,07,14,04,21,13.70
2018,07,14,04,22,13.70
2018,07,14,04,23,13.70
2018,07,14,04,24,13.80
2018,07,14,04,25,13.80
2018,07,14,04,26,13.80
2018,07,14,04,27,13.80
2018,07,14,04,28,13.80
2018,07,14,04,29,13.80
2018,07,14,04,30,13.80
2018,07,14,04,31,13.80
2018,07,14,04,32,13.70
2018,07,14,04,33,13.70
2018,07,14,04,34,13.70
2018,07,14,04,35,13.70
2018,07,14,04,36,13.60
2018,07,14,04,37,13.60
2018,07,14,04,38,13.50
2018,07,14,04,39,13.50
2018,07,14,04,40,13.40
2018,07,14,04,41,13.40
2018,07,14,04,42,13.40
2018,07,14,04,43,13.30
2018,07,14,04,44,13.30
2018,07,14,04,45,13.30
2018,07,14,04,46,13.30
2018,07,14,04,47,13.30
2018,07,14,04,48,13.30
2018,07,14,04,49,13.30
2018,07,14,04,50,13.30
2018,07,14,04,51,13.40
2018,07,14,04,52,13.40
2018,07,14,04,53,13.50
2018,07,14,04,54,13.50
2018,07,14,04,55,13.50
2018,07,14,04,56,13.60
2018,07,14,04,57,13.70
2018,07,14,04,58,13.80
2018,07,14,04,59,13.90
2018,07,14,05,00,14.10
2018,07,14,05,01,14.20
2018,07,14,05,02,14.30
2018,07,14,05,03,14.40
2018,07,14,05,04,14.40
2018,07,14,05,05,14.40
2018,07,14,05,06,14.40
2018,07,14,05,07,14.30
2018,07,14,05,08,14.30
2018,07,14,05,09,14.20
2018,07,14,05,10,14.20
2018,07,14,05,11,14.10
2018,07,14,05,12,14.10
2018,07,14,05,13,14.00
2018,07,14,05,14,14.00
2018,07,14,05,15,13.90
2018,07,14,05,16,13.80
2018,07,14,05,17,13.70
2018,07,14,05,18,13.60
2018,07,14,05,19,13.60
2018,07,14,05,20,13.50
2018,07,14,05,21,13.50
2018,07,14,05,22,13.40
2018,07,14,05,23,13.40
2018,07,14,05,24,13.40
2018,07,14,05,25,13.30
2018,07,14,05,26,13.30
2018,07,14,05,27,13.30
2018,07,14,05,28,13.30
2018,07,14,05,29,13.30
2018,07,14,05,30,13.30
2018,07,14,05,31,13.30
2018,07,14,05,32,13.30
2018,07,14,05,33,13.30
2018,07,14,05,34,13.30
2018,07,14,05,35,13.40
2018,07,14,05,36,13.50
2018,07,14,05,37,13.50
2018,07,14,05,38,13.60
2018,07,14,05,39,13.60
2018,07,14,05,40,13.70
2018,07,14,05,41,13.70
2018,07,14,05,42,13.80
2018,07,14,05,43,13.80
2018,07,14,05,44,13.80
2018,07,14,05,45,13.80
2018,07,14,05,46,13.80
2018,07,14,05,47,13.90
2018,07,14,05,48,13.90
2018,07,14,05,49,14.00
2018,07,14,05,50,14.00
2018,07,14,05,51,14.10
2018,07,14,05,52,14.10
2018,07,14,05,53,14.10
2018,07,14,05,54,14.20
2018,07,14,05,55,14.20
2018,07,14,05,56,14.30
2018,07,14,05,57,14.30
2018,07,14,05,58,14.40
2018,07,14,05,59,14.40
2018,07,14,06,00,14.50
2018,07,14,06,01,14.50
2018,07,14,06,02,14.60
2018,07,14,06,03,14.60
2018,07,14,06,04,14.70
2018,07,14,06,05,14.70
2018,07,14,06,06,14.70
2018,07,14,06,07,14.80
2018,07,14,06,08,14.80
2018,07,14,06,09,14.80
2018,07,14,06,10,14.80
2018,07,14,06,11,14.90
2018,07,14,06,12,14.90
2018,07,14,06,13,15.00
2018,07,14,06,14,15.10
2018,07,14,06,15,15.10
2018,07,14,06,16,15.20
2018,07,14,06,17,15.20
2018,07,14,06,18,15.30
2018,07,14,06,19,15.30
2018,07,14,06,20,15.30
2018,07,14,06,21,15.30
2018,07,14,06,22,15.40
2018,07,14,06,23,15.40
2018,07,14,06,24,15.40
2018,07,14,06,25,15.50
2018,07,14,06,26,15.50
2018,07,14,06,27,15.60
2018,07,14,06,28,15.70
2018,07,14,06,29,15.80
2018,07,14,06,30,16.00
2018,07,14,06,31,16.10
2018,07,14,06,32,16.30
2018,07,14,06,33,16.50
2018,07,14,06,34,16.60
2018,07,14,06,35,16.70
2018,07,14,06,36,16.80
2018,07,14,06,37,16.90
2018,07,14,06,38,16.90
2018,07,14,06,39,17.00
2018,07,14,06,40,17.10
2018,07,14,06,41,17.20
2018,07,14,06,42,17.30
2018,07,14,06,43,17.30
2018,07,14,06,44,17.40
2018,07,14,06,45,17.50
2018,07,14,06,46,17.60
2018,07,14,06,47,17.60
2018,07,14,06,48,17.70
2018,07,14,06,49,17.70
2018,07,14,06,50,17.80
2018,07,14,06,51,17.80
2018,07,14,06,52,17.90
2018,07,14,06,53,17.90
2018,07,14,06,54,17.90
2018,07,14,06,55,18.00
2018,07,14,06,56,18.10
2018,07,14,06,57,18.10
2018,07,14,06,58,18.00
2018,07,14,06,59,18.00
2018,07,14,07,00,17.90
2018,07,14,07,01,17.90
2018,07,14,07,02,17.80
2018,07,14,07,03,17.80
2018,07,14,07,04,17.80
2018,07,14,07,05,17.80
2018,07,14,07,06,17.80
2018,07,14,07,07,17.80
2018,07,14,07,08,17.80
2018,07,14,07,09,17.80
2018,07,14,07,10,17.80
2018,07,14,07,11,17.90
2018,07,14,07,12,17.90
2018,07,14,07,13,17.90
2018,07,14,07,14,17.90
2018,07,14,07,15,17.90
2018,07,14,07,16,17.90
2018,07,14,07,17,18.00
2018,07,14,07,18,18.00
2018,07,14,07,19,18.00
2018,07,14,07,20,18.00
2018,07,14,07,21,18.10
2018,07,14,07,22,18.10
2018,07,14,07,23,18.10
2018,07,14,07,24,18.10
2018,07,14,07,25,18.10
2018,07,14,07,26,18.20
2018,07,14,07,27,18.20
2018,07,14,07,28,18.20
2018,07,14,07,29,18.20
2018,07,14,07,30,18.20
2018,07,14,07,31,18.30
2018,07,14,07,32,18.30
2018,07,14,07,33,18.30
2018,07,14,07,34,18.40
2018,07,14,07,35,18.40
2018,07,14,07,36,18.40
2018,07,14,07,37,18.40
2018,07,14,07,38,18.30
2018,07,14,07,39,18.30
2018,07,14,07,40,18.40
2018,07,14,07,41,18.40
2018,07,14,07,42,18.40
2018,07,14,07,43,18.40
2018,07,14,07,44,18.40
2018,07,14,07,45,18.50
2018,07,14,07,46,18.50
2018,07,14,07,47,18.50
2018,07,14,07,48,18.60
2018,07,14,07,49,18.60
2018,07,14,07,50,18.50
2018,07,14,07,51,18.50
2018,07,14,07,52,18.50
2018,07,14,07,53,18.50
2018,07,14,07,54,18.50
2018,07,14,07,55,18.50
2018,07,14,07,56,18.50
2018,07,14,07,57,18.60
2018,07,14,07,58,18.60
2018,07,14,07,59,18.60
2018,07,14,08,00,18.70
2018,07,14,08,01,18.70
2018,07,14,08,02,18.70
2018,07,14,08,03,18.80
2018,07,14,08,04,18.80
2018,07,14,08,05,18.80
2018,07,14,08,06,18.90
2018,07,14,08,07,18.90
2018,07,14,08,08,18.90
2018,07,14,08,09,18.90
2018,07,14,08,10,18.90
2018,07,14,08,11,18.90
2018,07,14,08,12,19.00
2018,07,14,08,13,19.00
2018,07,14,08,14,19.10
2018,07,14,08,15,19.10
2018,07,14,08,16,19.20
2018,07,14,08,17,19.30
2018,07,14,08,18,19.40
2018,07,14,08,19,19.40
2018,07,14,08,20,19.40
2018,07,14,08,21,19.50
2018,07,14,08,22,19.50
2018,07,14,08,23,19.60
2018,07,14,08,24,19.70
2018,07,14,08,25,19.70
2018,07,14,08,26,19.80
2018,07,14,08,27,19.80
2018,07,14,08,28,19.80
2018,07,14,08,29,19.90
2018,07,14,08,30,19.90
2018,07,14,08,31,19.90
2018,07,14,08,32,20.00
2018,07,14,08,33,20.00
2018,07,14,08,34,20.10
2018,07,14,08,35,20.20
2018,07,14,08,36,20.20
2018,07,14,08,37,20.30
2018,07,14,08,38,20.30
2018,07,14,08,39,20.40
2018,07,14,08,40,20.40
2018,07,14,08,41,20.40
2018,07,14,08,42,20.40
2018,07,14,08,43,20.40
2018,07,14,08,44,20.40
2018,07,14,08,45,20.40
2018,07,14,08,46,20.50
2018,07,14,08,47,20.60
2018,07,14,08,48,20.60
2018,07,14,08,49,20.70
2018,07,14,08,50,20.80
2018,07,14,08,51,20.90
2018,07,14,08,52,21.00
2018,07,14,08,53,21.00
2018,07,14,08,54,21.10
2018,07,14,08,55,21.10
2018,07,14,08,56,21.00
2018,07,14,08,57,20.90
2018,07,14,08,58,20.90
2018,07,14,08,59,20.80
2018,07,14,09,00,20.80
2018,07,14,09,01,20.80
2018,07,14,09,02,20.80
2018,07,14,09,03,20.70
2018,07,14,09,04,20.70
2018,07,14,09,05,20.70
2018,07,14,09,06,20.70
2018,07,14,09,07,20.70
2018,07,14,09,08,20.70
2018,07,14,09,09,20.70
2018,07,14,09,10,20.80
2018,07,14,09,11,20.80
2018,07,14,09,12,20.80
2018,07,14,09,13,20.80
2018,07,14,09,14,20.80
2018,07,14,09,15,20.80
2018,07,14,09,16,20.80
2018,07,14,09,17,20.80
2018,07,14,09,18,20.80
2018,07,14,09,19,20.80
2018,07,14,09,20,20.80
2018,07,14,09,21,20.80
2018,07,14,09,22,20.90
2018,07,14,09,23,20.90
2018,07,14,09,24,21.00
2018,07,14,09,25,21.00
2018,07,14,09,26,21.10
2018,07,14,09,27,21.20
2018,07,14,09,28,21.20
2018,07,14,09,29,21.20
2018,07,14,09,30,21.30
2018,07,14,09,31,21.40
2018,07,14,09,32,21.40
2018,07,14,09,33,21.50
2018,07,14,09,34,21.60
2018,07,14,09,35,21.60
2018,07,14,09,36,21.60
2018,07,14,09,37,21.70
2018,07,14,09,38,21.80
2018,07,14,09,39,21.80
2018,07,14,09,40,21.90
2018,07,14,09,41,21.90
2018,07,14,09,42,21.90
2018,07,14,09,43,21.90
2018,07,14,09,44,21.90
2018,07,14,09,45,21.90
2018,07,14,09,46,21.90
2018,07,14,09,47,21.90
2018,07,14,09,48,21.90
2018,07,14,09,49,21.90
2018,07,14,09,50,22.00
2018,07,14,09,51,22.10
2018,07,14,09,52,22.10
2018,07,14,09,53,22.00
2018,07,14,09,54,22.10
2018,07,14,09,55,22.10
2018,07,14,09,56,22.10
2018,07,14,09,57,22.20
2018,07,14,09,58,22.20
2018,07,14,09,59,22.30
2018,07,14,10,00,22.30
2018,07,14,10,01,22.40
2018,07,14,10,02,22.40
2018,07,14,10,03,22.40
2018,07,14,10,04,22.30
2018,07,14,10,05,22.30
2018,07,14,10,06,22.30
2018,07,14,10,07,22.20
2018,07,14,10,08,22.20
2018,07,14,10,09,22.20
2018,07,14,10,10,22.30
2018,07,14,10,11,22.30
2018,07,14,10,12,22.30
2018,07,14,10,13,22.30
2018,07,14,10,14,22.40
2018,07,14,10,15,22.50
2018,07,14,10,16,22.60
2018,07,14,10,17,22.60
2018,07,14,10,18,22.70
2018,07,14,10,19,22.70
2018,07,14,10,20,22.60
2018,07,14,10,21,22.50
2018,07,14,10,22,22.50
2018,07,14,10,23,22.40
2018,07,14,10,24,22.40
2018,07,14,10,25,22.40
2018,07,14,10,26,22.30
2018,07,14,10,27,22.30
2018,07,14,10,28,22.40
2018,07,14,10,29,22.50
2018,07,14,10,30,22.60
2018,07,14,10,31,22.60
2018,07,14,10,32,22.60
2018,07,14,10,33,22.60
2018,07,14,10,34,22.60
2018,07,14,10,35,22.70
2018,07,14,10,36,22.80
2018,07,14,10,37,22.80
2018,07,14,10,38,22.90
2018,07,14,10,39,22.90
2018,07,14,10,40,22.90
2018,07,14,10,41,22.90
2018,07,14,10,42,23.00
2018,07,14,10,43,23.10
2018,07,14,10,44,23.10
2018,07,14,10,45,23.10
2018,07,14,10,46,23.10
2018,07,14,10,47,23.20
2018,07,14,10,48,23.20
2018,07,14,10,49,23.30
2018,07,14,10,50,23.40
2018,07,14,10,51,23.50
2018,07,14,10,52,23.60
2018,07,14,10,53,23.70
2018,07,14,10,54,23.70
2018,07,14,10,55,23.70
2018,07,14,10,56,23.70
2018,07,14,10,57,23.70
2018,07,14,10,58,23.70
2018,07,14,10,59,23.80
2018,07,14,11,00,23.90
2018,07,14,11,01,24.00
2018,07,14,11,02,24.00
2018,07,14,11,03,24.10
2018,07,14,11,04,24.10
2018,07,14,11,05,24.00
2018,07,14,11,06,23.90
2018,07,14,11,07,23.90
2018,07,14,11,08,24.00
2018,07,14,11,09,24.10
2018,07,14,11,10,24.20
2018,07,14,11,11,24.30
2018,07,14,11,12,24.30
2018,07,14,11,13,24.30
2018,07,14,11,14,24.30
2018,07,14,11,15,24.40
2018,07,14,11,16,24.60
2018,07,14,11,17,24.80
2018,07,14,11,18,24.70
2018,07,14,11,19,24.50
2018,07,14,11,20,24.30
2018,07,14,11,21,24.20
2018,07,14,11,22,24.20
2018,07,14,11,23,24.20
2018,07,14,11,24,24.30
2018,07,14,11,25,24.40
2018,07,14,11,26,24.40
2018,07,14,11,27,24.40
2018,07,14,11,28,24.40
2018,07,14,11,29,24.30
2018,07,14,11,30,24.20
2018,07,14,11,31,24.20
2018,07,14,11,32,24.20
2018,07,14,11,33,24.20
2018,07,14,11,34,24.30
2018,07,14,11,35,24.40
2018,07,14,11,36,24.60
2018,07,14,11,37,24.80
2018,07,14,11,38,24.90
2018,07,14,11,39,25.00
2018,07,14,11,40,24.90
2018,07,14,11,41,24.90
2018,07,14,11,42,24.90
2018,07,14,11,43,24.70
2018,07,14,11,44,24.60
2018,07,14,11,45,24.50
2018,07,14,11,46,24.40
2018,07,14,11,47,24.50
2018,07,14,11,48,24.50
2018,07,14,11,49,24.40
2018,07,14,11,50,24.40
2018,07,14,11,51,24.30
2018,07,14,11,52,24.30
2018,07,14,11,53,24.30
2018,07,14,11,54,24.30
2018,07,14,11,55,24.30
2018,07,14,11,56,24.30
2018,07,14,11,57,24.30
2018,07,14,11,58,24.40
2018,07,14,11,59,24.50
2018,07,14,12,00,24.50
2018,07,14,12,01,24.60
2018,07,14,12,02,24.80
2018,07,14,12,03,25.00
2018,07,14,12,04,25.10
2018,07,14,12,05,25.00
2018,07,14,12,06,25.00
2018,07,14,12,07,25.10
2018,07,14,12,08,25.20
2018,07,14,12,09,25.30
2018,07,14,12,10,25.40
2018,07,14,12,11,25.50
2018,07,14,12,12,25.60
2018,07,14,12,13,25.80
2018,07,14,12,14,25.80
2018,07,14,12,15,25.70
2018,07,14,12,16,25.60
2018,07,14,12,17,25.50
2018,07,14,12,18,25.50
2018,07,14,12,19,25.70
2018,07,14,12,20,26.00
2018,07,14,12,21,26.10
2018,07,14,12,22,26.20
2018,07,14,12,23,26.20
2018,07,14,12,24,26.20
2018,07,14,12,25,26.10
2018,07,14,12,26,26.00
2018,07,14,12,27,25.80
2018,07,14,12,28,25.80
2018,07,14,12,29,25.80
2018,07,14,12,30,25.80
2018,07,14,12,31,25.70
2018,07,14,12,32,25.70
2018,07,14,12,33,25.60
2018,07,14,12,34,25.60
2018,07,14,12,35,25.70
2018,07,14,12,36,25.70
2018,07,14,12,37,25.70
2018,07,14,12,38,25.70
2018,07,14,12,39,25.90
2018,07,14,12,40,25.90
2018,07,14,12,41,25.90
2018,07,14,12,42,25.90
2018,07,14,12,43,25.90
2018,07,14,12,44,26.00
2018,07,14,12,45,26.00
2018,07,14,12,46,26.10
2018,07,14,12,47,26.30
2018,07,14,12,48,26.30
2018,07,14,12,49,26.30
2018,07,14,12,50,26.30
2018,07,14,12,51,26.30
2018,07,14,12,52,26.30
2018,07,14,12,53,26.30
2018,07,14,12,54,26.30
2018,07,14,12,55,26.40
2018,07,14,12,56,26.50
2018,07,14,12,57,26.60
2018,07,14,12,58,26.60
2018,07,14,12,59,26.70
2018,07,14,13,00,26.80
2018,07,14,13,01,26.80
2018,07,14,13,02,26.70
2018,07,14,13,03,26.80
2018,07,14,13,04,26.90
2018,07,14,13,05,27.00
2018,07,14,13,06,27.10
2018,07,14,13,07,27.20
2018,07,14,13,08,27.20
2018,07,14,13,09,27.10
2018,07,14,13,10,27.10
2018,07,14,13,11,27.10
2018,07,14,13,12,27.20
2018,07,14,13,13,27.30
2018,07,14,13,14,27.50
2018,07,14,13,15,27.60
2018,07,14,13,16,27.50
2018,07,14,13,17,27.30
2018,07,14,13,18,27.20
2018,07,14,13,19,27.10
2018,07,14,13,20,27.20
2018,07,14,13,21,27.30
2018,07,14,13,22,27.20
2018,07,14,13,23,27.20
2018,07,14,13,24,27.20
2018,07,14,13,25,27.20
2018,07,14,13,26,27.20
2018,07,14,13,27,27.30
2018,07,14,13,28,27.20
2018,07,14,13,29,27.10
2018,07,14,13,30,27.10
2018,07,14,13,31,27.10
2018,07,14,13,32,27.10
2018,07,14,13,33,27.00
2018,07,14,13,34,27.00
2018,07,14,13,35,27.00
2018,07,14,13,36,27.00
2018,07,14,13,37,27.00
2018,07,14,13,38,27.00
2018,07,14,13,39,27.00
2018,07,14,13,40,27.20
2018,07,14,13,41,27.30
2018,07,14,13,42,27.40
2018,07,14,13,43,27.50
2018,07,14,13,44,27.60
2018,07,14,13,45,27.60
2018,07,14,13,46,27.70
2018,07,14,13,47,27.80
2018,07,14,13,48,27.70
2018,07,14,13,49,27.70
2018,07,14,13,50,27.60
2018,07,14,13,51,27.50
2018,07,14,13,52,27.40
2018,07,14,13,53,27.40
2018,07,14,13,54,27.50
2018,07,14,13,55,27.50
2018,07,14,13,56,27.60
2018,07,14,13,57,27.70
2018,07,14,13,58,27.80
2018,07,14,13,59,28.00
2018,07,14,14,00,28.10
2018,07,14,14,01,28.10
2018,07,14,14,02,28.00
2018,07,14,14,03,27.80
2018,07,14,14,04,27.80
2018,07,14,14,05,27.70
2018,07,14,14,06,27.60
2018,07,14,14,07,27.60
2018,07,14,14,08,27.60
2018,07,14,14,09,27.60
2018,07,14,14,10,27.60
2018,07,14,14,11,27.70
2018,07,14,14,12,27.70
2018,07,14,14,13,27.70
2018,07,14,14,14,27.70
2018,07,14,14,15,27.80
2018,07,14,14,16,27.80
2018,07,14,14,17,27.70
2018,07,14,14,18,27.80
2018,07,14,14,19,27.90
2018,07,14,14,20,28.00
2018,07,14,14,21,28.10
2018,07,14,14,22,28.10
2018,07,14,14,23,28.20
2018,07,14,14,24,28.30
2018,07,14,14,25,28.40
2018,07,14,14,26,28.40
2018,07,14,14,27,28.50
2018,07,14,14,28,28.50
2018,07,14,14,29,28.60
2018,07,14,14,30,28.60
2018,07,14,14,31,28.60
2018,07,14,14,32,28.70
2018,07,14,14,33,28.80
2018,07,14,14,34,28.80
2018,07,14,14,35,28.80
2018,07,14,14,36,28.80
2018,07,14,14,37,28.70
2018,07,14,14,38,28.70
2018,07,14,14,39,28.70
2018,07,14,14,40,28.70
2018,07,14,14,41,28.60
2018,07,14,14,42,28.50
2018,07,14,14,43,28.40
2018,07,14,14,44,28.30
2018,07,14,14,45,28.30
2018,07,14,14,46,28.30
2018,07,14,14,47,28.30
2018,07,14,14,48,28.30
2018,07,14,14,49,28.30
2018,07,14,14,50,28.30
2018,07,14,14,51,28.40
2018,07,14,14,52,28.50
2018,07,14,14,53,28.70
2018,07,14,14,54,29.00
2018,07,14,14,55,29.10
2018,07,14,14,56,29.10
2018,07,14,14,57,29.20
2018,07,14,14,58,29.20
2018,07,14,14,59,29.30
2018,07,14,15,00,29.30
2018,07,14,15,01,29.20
2018,07,14,15,02,29.20
2018,07,14,15,03,29.20
2018,07,14,15,04,29.10
2018,07,14,15,05,29.10
2018,07,14,15,06,29.10
2018,07,14,15,07,29.00
2018,07,14,15,08,29.00
2018,07,14,15,09,28.90
2018,07,14,15,10,29.00
2018,07,14,15,11,29.10
2018,07,14,15,12,29.20
2018,07,14,15,13,29.30
2018,07,14,15,14,29.30
2018,07,14,15,15,29.30
2018,07,14,15,16,29.30
2018,07,14,15,17,29.30
2018,07,14,15,18,29.30
2018,07,14,15,19,29.20
2018,07,14,15,20,29.10
2018,07,14,15,21,28.90
2018,07,14,15,22,28.80
2018,07,14,15,23,28.90
2018,07,14,15,24,29.00
2018,07,14,15,25,29.00
2018,07,14,15,26,29.00
2018,07,14,15,27,29.00
2018,07,14,15,28,29.10
2018,07,14,15,29,29.00
2018,07,14,15,30,29.00
2018,07,14,15,31,28.90
2018,07,14,15,32,28.90
2018,07,14,15,33,29.10
2018,07,14,15,34,29.20
2018,07,14,15,35,29.20
2018,07,14,15,36,29.20
2018,07,14,15,37,29.10
2018,07,14,15,38,29.20
2018,07,14,15,39,29.20
2018,07,14,15,40,29.30
2018,07,14,15,41,29.40
2018,07,14,15,42,29.50
2018,07,14,15,43,29.70
2018,07,14,15,44,29.80
2018,07,14,15,45,29.80
2018,07,14,15,46,29.80
2018,07,14,15,47,29.80
2018,07,14,15,48,29.70
2018,07,14,15,49,29.50
2018,07,14,15,50,29.30
2018,07,14,15,51,29.20
2018,07,14,15,52,29.10
2018,07,14,15,53,29.20
2018,07,14,15,54,29.20
2018,07,14,15,55,29.20
2018,07,14,15,56,29.30
2018,07,14,15,57,29.30
2018,07,14,15,58,29.40
2018,07,14,15,59,29.40
2018,07,14,16,00,29.40
2018,07,14,16,01,29.30
2018,07,14,16,02,29.30
2018,07,14,16,03,29.30
2018,07,14,16,04,29.40
2018,07,14,16,05,29.40
2018,07,14,16,06,29.40
2018,07,14,16,07,29.50
2018,07,14,16,08,29.50
2018,07,14,16,09,29.50
2018,07,14,16,10,29.50
2018,07,14,16,11,29.40
2018,07,14,16,12,29.40
2018,07,14,16,13,29.30
2018,07,14,16,14,29.30
2018,07,14,16,15,29.30
2018,07,14,16,16,29.30
2018,07,14,16,17,29.30
2018,07,14,16,18,29.40
2018,07,14,16,19,29.50
2018,07,14,16,20,29.60
2018,07,14,16,21,29.70
2018,07,14,16,22,29.80
2018,07,14,16,23,29.90
2018,07,14,16,24,29.90
2018,07,14,16,25,29.80
2018,07,14,16,26,29.80
2018,07,14,16,27,29.80
2018,07,14,16,28,29.80
2018,07,14,16,29,29.70
2018,07,14,16,30,29.60
2018,07,14,16,31,29.60
2018,07,14,16,32,29.70
2018,07,14,16,33,29.70
2018,07,14,16,34,29.80
2018,07,14,16,35,29.90
2018,07,14,16,36,29.90
2018,07,14,16,37,29.90
2018,07,14,16,38,30.00
2018,07,14,16,39,30.00
2018,07,14,16,40,30.00
2018,07,14,16,41,30.00
2018,07,14,16,42,29.90
2018,07,14,16,43,29.90
2018,07,14,16,44,29.90
2018,07,14,16,45,29.90
2018,07,14,16,46,29.90
2018,07,14,16,47,29.90
2018,07,14,16,48,30.00
2018,07,14,16,49,30.00
2018,07,14,16,50,29.90
2018,07,14,16,51,29.90
2018,07,14,16,52,29.80
2018,07,14,16,53,29.80
2018,07,14,16,54,29.80
2018,07,14,16,55,29.90
2018,07,14,16,56,30.00
2018,07,14,16,57,30.00
2018,07,14,16,58,30.10
2018,07,14,16,59,30.20
2018,07,14,17,00,30.30
2018,07,14,17,01,30.30
2018,07,14,17,02,30.30
2018,07,14,17,03,30.30
2018,07,14,17,04,30.30
2018,07,14,17,05,30.30
2018,07,14,17,06,30.30
2018,07,14,17,07,30.30
2018,07,14,17,08,30.20
2018,07,14,17,09,30.20
2018,07,14,17,10,30.20
2018,07,14,17,11,30.10
2018,07,14,17,12,30.00
2018,07,14,17,13,29.90
2018,07,14,17,14,29.80
2018,07,14,17,15,29.60
2018,07,14,17,16,29.50
2018,07,14,17,17,29.40
2018,07,14,17,18,29.50
2018,07,14,17,19,29.60